Location: Unspecified
(0.0000°N, 0.0000°E)
Time: 07:17:19
(UTC+00:00)

Vanguard 2 Rocket - Pass Details

Date: 15 October 2022
Orbit: 555 x 3321 km, 32.9° (Epoch: 06 December)

Event Time Altitude Azimuth Distance (km) Brightness Sun altitude
Rises 01:07:12 0° 319° (NW) 5,921 - -68.1°
Reaches altitude 10° 01:12:49 10° 332° (NNW) 4,360 - -66.8°
Maximum altitude 01:20:54 23° 19° (NNE) 2,584 - -64.9°
Drops below altitude 10° 01:26:22 10° 70° (ENE) 2,838 - -63.6°
Sets 01:29:06 0° 86° (E) 3,487 - -62.9°
